Content
SEND FEEDBACK

Daily
Averages
Monthly
Summary
Switzerland

GENEVA, SWITZERLAND


Home > Europe > Switzerland
Elevation: 1364 feet     Latitude: 46 15N     Longitude: 006 08E

WEATHER
 
SELECT A DAY
Number of Records: 313,079;   Date Range: 7/1/96 - 10/19/14
 
SHARE

PRINT THIS DATA

[ ← Previous Day ]
WEATHER ALMANAC - MAY 9, 2013
[ Next Day → ]
[ °C ]   °F
Weather ElementAverageHighLow
Temperature61.3 °F69.8 °F (4:20 pm)55.4 °F (4:20 am)
Dewpoint55 °F57.2 °F (7:50 am)52 °F (10:00 am)
Humidity79.5 %100 % (4:20 am)51 % (4:00 pm)
Barometer30.00 in30.04 in (1:20 am)29.93 in (6:00 pm)
Wind Speed3.1 mph8.1 mph (2:00 am)
Weather ElementAverage
Visibility7.6 mi
Wind DirectionENE (78.6 °)

Weather ElementTotal
Precipitation---
Heating Degree Days2.4 (Base 65)
Growing Degree Days12.6 (Base 50)
Averaged from 66 records on May 9, 2013
WEATHER CONDITIONS BREAKOUT
WIND DIRECTION BREAKOUT
WEATHER BY HOUR - MAY 9, 2013
[ °C ]   °F
Local TimeTemperatureDewpointHumidityBarometerVisibilityWind DirectionWind SpeedGust SpeedPrecipitationEventsConditions
12:20 AM59.0 °F55.4 °F88 %30.01 in6.2 miVariable2.3 mphMostly Cloudy
12:50 AM59.0 °F55.4 °F88 %30.01 in6.2 miVariable2.3 mphMostly Cloudy
1:00 AM58.0 °F55.0 °F86 %30.02 inNNE (20°)2.3 mph
1:20 AM59.0 °F55.4 °F88 %30.04 in6.2 miVariable2.3 mphMostly Cloudy
1:50 AM59.0 °F55.4 °F88 %30.04 in6.2 miSouth (180°)4.6 mphRainLight Rain Showers
2:00 AM58.0 °F54.0 °F84 %30.02 in19.0 miSouth (180°)8.1 mphPartly Cloudy
2:20 AM59.0 °F55.4 °F88 %30.01 in6.2 miSouth (190°)3.5 mphRainLight Rain Showers
2:50 AM57.2 °F55.4 °F94 %30.04 in6.2 miVariable2.3 mphRainLight Rain Showers
3:00 AM58.0 °F56.0 °F89 %30.02 inWSW (240°)2.3 mph
3:50 AM57.2 °F55.4 °F94 %30.04 in6.2 miSE (140°)2.3 mphMostly Cloudy
4:00 AM57.0 °F55.0 °F91 %30.03 inSSE (150°)3.5 mph
4:20 AM55.4 °F55.4 °F100 %30.04 in6.2 miSouth (180°)5.8 mphMostly Cloudy
4:50 AM55.4 °F55.4 °F100 %30.04 in6.2 miVariable2.3 mphRainLight Rain Showers
5:20 AM55.4 °F55.4 °F100 %30.04 in6.2 miCalmMostly Cloudy
5:50 AM55.4 °F55.4 °F100 %30.04 in6.2 miCalmMostly Cloudy
6:00 AM56.0 °F55.0 °F95 %30.04 inENE (60°)1.2 mph
6:20 AM55.4 °F55.4 °F100 %30.04 in6.2 miCalmMostly Cloudy
6:50 AM55.4 °F55.4 °F100 %30.04 in6.2 miCalmMostly Cloudy
7:00 AM56.0 °F55.0 °F95 %30.04 inNNE (30°)2.3 mph
7:20 AM55.4 °F55.4 °F100 %30.04 in6.2 miCalmMostly Cloudy
7:50 AM57.2 °F57.2 °F100 %30.04 in6.2 miCalmMostly Cloudy
8:00 AM58.0 °F55.0 °F86 %30.04 in12.0 miNorth (10°)1.2 mphOvercast
8:20 AM57.2 °F55.4 °F94 %30.04 in6.2 miVariable1.2 mphMostly Cloudy
8:50 AM59.0 °F55.4 °F88 %30.04 in6.2 miCalmMostly Cloudy
9:00 AM59.0 °F56.0 °F86 %30.04 inEast (90°)1.2 mph
9:20 AM60.8 °F55.4 °F82 %30.04 in6.2 miVariable1.2 mphMostly Cloudy
9:50 AM62.6 °F57.2 °F82 %30.04 in6.2 miVariable2.3 mphMostly Cloudy
10:00 AM60.0 °F52.0 °F67 %30.02 inSW (220°)2.3 mph
10:20 AM62.6 °F53.6 °F72 %30.04 in6.2 miVariable2.3 mphMostly Cloudy
10:50 AM62.6 °F53.6 °F72 %30.04 in6.2 miVariable1.2 mphMostly Cloudy
11:20 AM64.4 °F53.6 °F68 %30.04 in6.2 miVariable3.5 mphMostly Cloudy
11:50 AM66.2 °F55.4 °F68 %30.01 in6.2 miVariable2.3 mphMostly Cloudy
12:00 PM64.0 °F52.0 °F57 %29.99 inESE (110°)4.6 mph
12:20 PM66.2 °F55.4 °F68 %30.01 in6.2 miVariable2.3 mphScattered Clouds
12:50 PM66.2 °F55.4 °F68 %30.01 in6.2 miVariable4.6 mphMostly Cloudy
1:00 PM66.0 °F53.0 °F54 %29.98 inNNE (30°)2.3 mph
1:20 PM68.0 °F53.6 °F60 %30.01 in6.2 miVariable4.6 mphMostly Cloudy
1:50 PM68.0 °F53.6 °F60 %30.01 in6.2 miSSW (210°)3.5 mphMostly Cloudy
2:00 PM67.0 °F54.0 °F53 %29.97 in31.0 miWest (260°)4.6 mphMostly Cloudy
2:20 PM68.0 °F55.4 °F64 %30.01 in6.2 miWNW (290°)4.6 mphMostly Cloudy
2:50 PM68.0 °F55.4 °F64 %30.01 in6.2 miSE (130°)5.8 mphMostly Cloudy
3:00 PM65.0 °F55.0 °F61 %29.96 inENE (60°)8.1 mph
3:20 PM66.2 °F55.4 °F68 %29.98 in6.2 miEast (80°)8.1 mphMostly Cloudy
3:50 PM68.0 °F55.4 °F64 %29.98 in6.2 miVariable4.6 mphMostly Cloudy
4:00 PM67.0 °F53.0 °F51 %29.94 inEast (100°)4.6 mph
4:20 PM69.8 °F55.4 °F60 %29.98 in6.2 miSW (220°)6.9 mphMostly Cloudy
4:50 PM69.8 °F53.6 °F56 %29.95 in6.2 miSW (220°)6.9 mphMostly Cloudy
5:20 PM69.8 °F53.6 °F56 %29.95 in6.2 miWSW (240°)4.6 mphMostly Cloudy
5:50 PM66.2 °F55.4 °F68 %29.95 in6.2 miSSW (200°)4.6 mphRainLight Rain
6:00 PM64.0 °F53.0 °F60 %29.93 inENE (70°)3.5 mph
6:20 PM64.4 °F55.4 °F73 %29.95 in6.2 miENE (70°)3.5 mphOvercast
6:50 PM66.2 °F55.4 °F68 %29.95 in6.2 miVariable2.3 mphMostly Cloudy
7:00 PM65.0 °F54.0 °F60 %29.93 inNorth (350°)3.5 mph
7:20 PM64.4 °F55.4 °F73 %29.95 in6.2 miNNE (30°)5.8 mphMostly Cloudy
7:50 PM62.6 °F53.6 °F72 %29.95 in6.2 miENE (70°)4.6 mphMostly Cloudy
8:00 PM62.0 °F52.0 °F62 %29.94 in34.0 miNorth (10°)2.3 mphScattered Clouds
8:20 PM60.8 °F55.4 °F82 %29.95 in6.2 miEast (90°)4.6 mphRainLight Rain
8:50 PM59.0 °F57.2 °F94 %29.95 in6.2 miENE (60°)4.6 mphRainLight Rain
9:00 PM59.0 °F56.0 °F87 %29.95 inNNE (30°)3.5 mph
9:20 PM59.0 °F57.2 °F94 %29.98 in6.2 miVariable2.3 mphRainLight Rain
9:50 PM59.0 °F57.2 °F94 %29.98 in6.2 miVariable1.2 mphRainLight Rain
10:00 PM59.0 °F57.0 °F89 %29.97 inNNW (330°)2.3 mph
10:20 PM59.0 °F57.2 °F94 %29.98 in6.2 miCalmRainLight Rain
10:50 PM57.2 °F55.4 °F94 %29.98 in6.2 miCalmRainLight Rain
11:20 PM57.2 °F55.4 °F94 %29.98 in6.2 miVariable2.3 mphRainLight Rain
11:50 PM57.2 °F55.4 °F94 %29.98 in6.2 miWSW (240°)6.9 mphRainLight Rain
Hourly data recorded from LSGG, located miles away from Geneva, Switzerland







STORIES FROM OUR PARTNERS